Time,TemperatureF,DewpointF,PressureIn,WindDirection,WindDirectionDegrees,WindSpeedMPH,WindSpeedGustMPH,Humidity,HourlyPrecipIn,Conditions,Clouds,dailyrainin,SoftwareType,DateUTC
2013-03-18 00:02:00,31.0,29.0,-100.00,SE,145,19.0,21.0,90,0.31,,,-99.99,,2013-03-18 05:02:00,
2013-03-18 00:12:00,31.0,29.0,-100.00,SE,145,21.0,24.0,90,0.27,,,-99.99,,2013-03-18 05:12:00,
2013-03-18 00:22:00,31.0,29.0,-100.00,SE,145,22.0,26.0,91,0.00,,,-99.99,,2013-03-18 05:22:00,
2013-03-18 00:32:00,31.0,29.0,-100.00,SE,145,22.0,29.0,91,0.00,,,-99.99,,2013-03-18 05:32:00,
2013-03-18 00:43:00,31.0,29.0,-100.00,SE,140,24.0,29.0,91,0.00,,,-99.99,,2013-03-18 05:43:00,
2013-03-18 00:52:00,30.0,28.0,-100.00,SE,140,24.0,29.0,92,0.00,,,-99.99,,2013-03-18 05:52:00,
2013-03-18 01:02:00,30.0,28.0,-100.00,SE,140,24.0,29.0,92,0.00,,,-99.99,,2013-03-18 06:02:00,
2013-03-18 01:12:00,31.0,29.0,-100.00,SE,145,25.0,31.0,92,0.00,,,-99.99,,2013-03-18 06:12:00,
2013-03-18 01:22:00,31.0,29.0,-100.00,SSE,150,25.0,30.0,92,0.25,,,-99.99,,2013-03-18 06:22:00,
2013-03-18 01:32:00,31.0,29.0,-100.00,SSE,150,27.0,30.0,92,0.25,,,-99.99,,2013-03-18 06:32:00,
2013-03-18 01:42:00,31.0,29.0,-100.00,SSE,150,26.0,34.0,92,0.27,,,-99.99,,2013-03-18 06:42:00,
2013-03-18 01:52:00,31.0,29.0,-100.00,SSE,150,26.0,32.0,92,0.30,,,-99.99,,2013-03-18 06:52:00,
2013-03-18 02:02:00,31.0,29.0,-100.00,SSE,150,26.0,30.0,93,0.50,,,-99.99,,2013-03-18 07:02:00,
2013-03-18 02:12:00,31.0,29.0,-100.00,SE,145,27.0,32.0,93,0.47,,,-99.99,,2013-03-18 07:12:00,
2013-03-18 02:22:00,31.0,29.0,-100.00,SSE,155,26.0,32.0,93,0.38,,,-99.99,,2013-03-18 07:22:00,
2013-03-18 02:32:00,31.0,29.0,-100.00,SSE,155,22.0,30.0,93,0.00,,,-99.99,,2013-03-18 07:32:00,
2013-03-18 02:42:00,31.0,29.0,-100.00,SSE,160,22.0,28.0,93,0.00,,,-99.99,,2013-03-18 07:42:00,
2013-03-18 02:52:00,31.0,29.0,-100.00,South,175,17.0,26.0,93,0.30,,,-99.99,,2013-03-18 07:52:00,
2013-03-18 03:02:00,31.0,29.0,-100.00,South,175,17.0,26.0,93,0.30,,,-99.99,,2013-03-18 08:02:00,
2013-03-18 03:12:00,31.0,29.0,-100.00,South,185,14.0,18.0,93,0.25,,,-99.99,,2013-03-18 08:12:00,
2013-03-18 03:22:00,31.0,29.0,-100.00,SSW,195,13.0,17.0,93,0.23,,,-99.99,,2013-03-18 08:22:00,
2013-03-18 03:32:00,31.0,30.0,-100.00,South,190,14.0,18.0,93,0.27,,,-99.99,,2013-03-18 08:32:00,
2013-03-18 03:43:00,31.0,30.0,-100.00,South,180,15.0,19.0,94,0.23,,,-99.99,,2013-03-18 08:43:00,
2013-03-18 03:52:00,31.0,30.0,-100.00,South,190,12.0,17.0,94,0.28,,,-99.99,,2013-03-18 08:52:00,
2013-03-18 04:02:00,31.0,30.0,-100.00,South,190,14.0,17.0,94,0.75,,,-99.99,,2013-03-18 09:02:00,
2013-03-18 04:12:00,31.0,30.0,-100.00,SSW,195,13.0,17.0,94,0.34,,,-99.99,,2013-03-18 09:12:00,
2013-03-18 04:22:00,32.0,30.0,-100.00,SSW,200,13.0,16.0,94,0.35,,,-99.99,,2013-03-18 09:22:00,
2013-03-18 04:33:00,32.0,31.0,-100.00,SSW,200,14.0,17.0,94,0.40,,,-99.99,,2013-03-18 09:33:00,
2013-03-18 04:43:00,32.0,31.0,-100.00,SSW,195,15.0,18.0,94,0.34,,,-99.99,,2013-03-18 09:43:00,
2013-03-18 04:53:00,32.0,31.0,-100.00,SSW,195,17.0,19.0,94,0.34,,,-99.99,,2013-03-18 09:53:00,
2013-03-18 05:03:00,32.0,31.0,-100.00,SSW,195,14.0,17.0,94,0.00,,,-99.99,,2013-03-18 10:03:00,
2013-03-18 05:12:00,32.0,31.0,-100.00,SSW,200,14.0,19.0,94,0.00,,,-99.99,,2013-03-18 10:12:00,
2013-03-18 05:23:00,32.0,31.0,-100.00,SSW,200,14.0,19.0,94,0.00,,,-99.99,,2013-03-18 10:23:00,
2013-03-18 05:33:00,32.0,31.0,-100.00,SW,220,17.0,20.0,94,0.34,,,-99.99,,2013-03-18 10:33:00,
2013-03-18 05:42:00,32.0,31.0,-100.00,SW,220,17.0,20.0,94,0.34,,,-99.99,,2013-03-18 10:42:00,
2013-03-18 05:52:00,33.0,31.0,-100.00,SW,230,15.0,21.0,94,0.38,,,-99.99,,2013-03-18 10:52:00,
2013-03-18 06:03:00,33.0,31.0,-100.00,SW,230,15.0,21.0,94,0.38,,,-99.99,,2013-03-18 11:03:00,
2013-03-18 06:12:00,33.0,31.0,-100.00,WSW,255,18.0,24.0,94,0.34,,,-99.99,,2013-03-18 11:12:00,
2013-03-18 06:22:00,33.0,31.0,-100.00,West,280,17.0,29.0,94,0.00,,,-99.99,,2013-03-18 11:22:00,
2013-03-18 06:32:00,33.0,31.0,-100.00,West,280,19.0,24.0,94,0.00,,,-99.99,,2013-03-18 11:32:00,
2013-03-18 06:42:00,32.0,31.0,-100.00,WNW,295,20.0,27.0,94,0.00,,,-99.99,,2013-03-18 11:42:00,
2013-03-18 06:52:00,32.0,31.0,-100.00,WNW,290,20.0,25.0,94,0.00,,,-99.99,,2013-03-18 11:52:00,
2013-03-18 07:02:00,32.0,30.0,-100.00,WNW,290,20.0,27.0,92,0.00,,,-99.99,,2013-03-18 12:02:00,
2013-03-18 07:12:00,31.0,29.0,-100.00,WNW,295,23.0,30.0,89,0.00,,,-99.99,,2013-03-18 12:12:00,
2013-03-18 07:22:00,31.0,27.0,-100.00,WNW,295,27.0,33.0,87,0.00,,,-99.99,,2013-03-18 12:22:00,
2013-03-18 07:32:00,29.0,24.0,-100.00,WNW,300,28.0,35.0,80,0.00,,,-99.99,,2013-03-18 12:32:00,
2013-03-18 07:42:00,29.0,24.0,-100.00,WNW,300,28.0,35.0,80,0.00,,,-99.99,,2013-03-18 12:42:00,
2013-03-18 07:52:00,28.0,23.0,-100.00,WNW,300,28.0,35.0,80,0.00,,,-99.99,,2013-03-18 12:52:00,
2013-03-18 08:02:00,28.0,23.0,-100.00,WNW,300,28.0,35.0,80,0.00,,,-99.99,,2013-03-18 13:02:00,
2013-03-18 08:12:00,27.0,22.0,-100.00,WNW,295,23.0,31.0,80,0.00,,,-99.99,,2013-03-18 13:12:00,
2013-03-18 08:22:00,27.0,22.0,-100.00,WNW,295,26.0,34.0,80,0.00,,,-99.99,,2013-03-18 13:22:00,
2013-03-18 08:33:00,26.0,21.0,-100.00,NW,315,27.0,31.0,80,0.00,,,-99.99,,2013-03-18 13:33:00,
2013-03-18 08:42:00,26.0,21.0,-100.00,NW,315,27.0,31.0,80,0.00,,,-99.99,,2013-03-18 13:42:00,
2013-03-18 08:52:00,25.0,20.0,-100.00,NW,305,25.0,32.0,80,0.00,,,-99.99,,2013-03-18 13:52:00,
2013-03-18 09:02:00,25.0,20.0,-100.00,NW,305,26.0,34.0,80,0.00,,,-99.99,,2013-03-18 14:02:00,
2013-03-18 09:12:00,25.0,19.0,-100.00,NW,310,23.0,33.0,78,0.00,,,-99.99,,2013-03-18 14:12:00,
2013-03-18 09:22:00,24.0,19.0,-100.00,WNW,300,24.0,30.0,78,0.00,,,-99.99,,2013-03-18 14:22:00,
2013-03-18 09:32:00,24.0,17.0,-100.00,NW,310,27.0,32.0,75,0.00,,,-99.99,,2013-03-18 14:32:00,
2013-03-18 09:42:00,24.0,17.0,-100.00,NW,310,27.0,32.0,75,0.00,,,-99.99,,2013-03-18 14:42:00,
2013-03-18 09:52:00,23.0,16.0,-100.00,WNW,295,24.0,32.0,74,0.00,,,-99.99,,2013-03-18 14:52:00,
2013-03-18 10:02:00,23.0,16.0,-100.00,WNW,295,24.0,32.0,74,0.00,,,-99.99,,2013-03-18 15:02:00,
2013-03-18 10:12:00,22.0,16.0,-100.00,NW,310,29.0,35.0,74,0.00,,,-99.99,,2013-03-18 15:12:00,
2013-03-18 10:22:00,22.0,15.0,-100.00,NW,315,28.0,37.0,75,0.00,,,-99.99,,2013-03-18 15:22:00,
2013-03-18 10:33:00,21.0,14.0,-100.00,NW,310,32.0,40.0,71,0.00,,,-99.99,,2013-03-18 15:33:00,
2013-03-18 10:42:00,21.0,14.0,-100.00,NW,310,32.0,40.0,71,0.00,,,-99.99,,2013-03-18 15:42:00,
2013-03-18 10:52:00,20.0,13.0,-100.00,NW,305,34.0,40.0,71,0.00,,,-99.99,,2013-03-18 15:52:00,
2013-03-18 11:03:00,20.0,13.0,-100.00,NW,305,34.0,40.0,71,0.00,,,-99.99,,2013-03-18 16:03:00,
2013-03-18 11:12:00,20.0,13.0,-100.00,NW,315,30.0,39.0,71,0.00,,,-99.99,,2013-03-18 16:12:00,
2013-03-18 11:22:00,21.0,13.0,-100.00,NW,310,27.0,34.0,70,0.00,,,-99.99,,2013-03-18 16:22:00,
2013-03-18 11:32:00,20.0,13.0,-100.00,NW,320,26.0,34.0,70,0.01,,,-99.99,,2013-03-18 16:32:00,
2013-03-18 11:42:00,20.0,13.0,-100.00,NW,320,26.0,34.0,70,0.01,,,-99.99,,2013-03-18 16:42:00,
2013-03-18 11:52:00,20.0,12.0,-100.00,NW,310,32.0,39.0,71,0.01,,,-99.99,,2013-03-18 16:52:00,
2013-03-18 12:02:00,20.0,12.0,-100.00,NW,310,32.0,39.0,71,0.01,,,-99.99,,2013-03-18 17:02:00,
2013-03-18 12:12:00,20.0,12.0,-100.00,WNW,300,29.0,34.0,70,0.03,,,-99.99,,2013-03-18 17:12:00,
2013-03-18 12:22:00,20.0,13.0,-100.00,NW,305,29.0,34.0,70,0.00,,,-99.99,,2013-03-18 17:22:00,
2013-03-18 12:32:00,20.0,12.0,-100.00,WNW,300,31.0,38.0,69,0.00,,,-99.99,,2013-03-18 17:32:00,
2013-03-18 12:42:00,20.0,12.0,-100.00,WNW,300,31.0,38.0,69,0.00,,,-99.99,,2013-03-18 17:42:00,
2013-03-18 12:52:00,20.0,12.0,-100.00,WNW,300,31.0,39.0,69,0.00,,,-99.99,,2013-03-18 17:52:00,
2013-03-18 13:02:00,20.0,12.0,-100.00,WNW,300,31.0,39.0,69,0.00,,,-99.99,,2013-03-18 18:02:00,
2013-03-18 13:12:00,20.0,11.0,-100.00,NW,305,33.0,42.0,68,0.00,,,-99.99,,2013-03-18 18:12:00,
2013-03-18 13:22:00,20.0,11.0,-100.00,WNW,300,32.0,42.0,67,0.00,,,-99.99,,2013-03-18 18:22:00,
2013-03-18 13:32:00,19.0,10.0,-100.00,NW,305,35.0,41.0,67,0.00,,,-99.99,,2013-03-18 18:32:00,
2013-03-18 13:42:00,19.0,10.0,-100.00,NW,305,35.0,41.0,67,0.00,,,-99.99,,2013-03-18 18:42:00,
2013-03-18 13:52:00,19.0,10.0,-100.00,WNW,300,34.0,39.0,67,0.00,,,-99.99,,2013-03-18 18:52:00,
2013-03-18 14:02:00,19.0,10.0,-100.00,WNW,300,34.0,39.0,67,0.00,,,-99.99,,2013-03-18 19:02:00,
2013-03-18 14:12:00,19.0,10.0,-100.00,WNW,300,33.0,39.0,67,0.00,,,-99.99,,2013-03-18 19:12:00,
2013-03-18 14:22:00,19.0,10.0,-100.00,NW,310,29.0,39.0,67,0.00,,,-99.99,,2013-03-18 19:22:00,
2013-03-18 14:32:00,19.0,11.0,-100.00,WNW,300,29.0,37.0,68,0.00,,,-99.99,,2013-03-18 19:32:00,
2013-03-18 14:42:00,19.0,11.0,-100.00,WNW,300,29.0,37.0,68,0.00,,,-99.99,,2013-03-18 19:42:00,
2013-03-18 14:52:00,20.0,10.0,-100.00,NW,305,32.0,40.0,66,0.00,,,-99.99,,2013-03-18 19:52:00,
2013-03-18 15:02:00,20.0,10.0,-100.00,NW,305,32.0,40.0,66,0.00,,,-99.99,,2013-03-18 20:02:00,
2013-03-18 15:12:00,20.0,10.0,-100.00,WNW,300,32.0,39.0,65,0.00,,,-99.99,,2013-03-18 20:12:00,
2013-03-18 15:22:00,20.0,10.0,-100.00,WNW,300,32.0,40.0,65,0.00,,,-99.99,,2013-03-18 20:22:00,
2013-03-18 15:32:00,20.0,11.0,-100.00,NW,305,34.0,41.0,65,0.00,,,-99.99,,2013-03-18 20:32:00,
2013-03-18 15:42:00,20.0,11.0,-100.00,NW,305,34.0,41.0,65,0.00,,,-99.99,,2013-03-18 20:42:00,
2013-03-18 15:52:00,21.0,11.0,-100.00,NW,305,32.0,39.0,65,0.00,,,-99.99,,2013-03-18 20:52:00,
2013-03-18 16:02:00,21.0,11.0,-100.00,NW,305,32.0,39.0,65,0.00,,,-99.99,,2013-03-18 21:02:00,
2013-03-18 16:12:00,21.0,11.0,-100.00,NW,305,32.0,40.0,65,0.00,,,-99.99,,2013-03-18 21:12:00,
2013-03-18 16:22:00,21.0,11.0,-100.00,WNW,300,35.0,40.0,65,0.00,,,-99.99,,2013-03-18 21:22:00,
2013-03-18 16:32:00,21.0,12.0,-100.00,NW,305,26.0,42.0,66,0.00,,,-99.99,,2013-03-18 21:32:00,
2013-03-18 16:42:00,21.0,12.0,-100.00,NW,305,26.0,42.0,66,0.00,,,-99.99,,2013-03-18 21:42:00,
2013-03-18 16:52:00,21.0,12.0,-100.00,NW,305,31.0,38.0,67,0.01,,,-99.99,,2013-03-18 21:52:00,
2013-03-18 17:03:00,21.0,12.0,-100.00,NW,305,31.0,38.0,67,0.01,,,-99.99,,2013-03-18 22:03:00,
2013-03-18 17:23:00,21.0,12.0,-100.00,WNW,295,28.0,36.0,67,0.00,,,-99.99,,2013-03-18 22:23:00,
2013-03-18 17:33:00,21.0,12.0,-100.00,NW,310,31.0,35.0,67,0.00,,,-99.99,,2013-03-18 22:33:00,
2013-03-18 17:42:00,21.0,12.0,-100.00,NW,310,31.0,35.0,67,0.00,,,-99.99,,2013-03-18 22:42:00,
2013-03-18 17:52:00,22.0,12.0,-100.00,NW,315,29.0,42.0,64,0.00,,,-99.99,,2013-03-18 22:52:00,
2013-03-18 18:03:00,22.0,12.0,-100.00,NW,315,29.0,42.0,64,0.00,,,-99.99,,2013-03-18 23:03:00,
2013-03-18 18:12:00,21.0,11.0,-100.00,NW,305,29.0,35.0,64,0.00,,,-99.99,,2013-03-18 23:12:00,
2013-03-18 18:22:00,21.0,11.0,-100.00,NW,310,30.0,37.0,64,0.00,,,-99.99,,2013-03-18 23:22:00,
2013-03-18 18:32:00,22.0,12.0,-100.00,NW,310,26.0,35.0,64,0.00,,,-99.99,,2013-03-18 23:32:00,
2013-03-18 18:42:00,22.0,12.0,-100.00,NW,310,26.0,35.0,64,0.00,,,-99.99,,2013-03-18 23:42:00,
2013-03-18 18:52:00,22.0,12.0,-100.00,NW,315,26.0,32.0,64,0.00,,,-99.99,,2013-03-18 23:52:00,
2013-03-18 19:02:00,22.0,12.0,-100.00,NW,315,26.0,32.0,64,0.00,,,-99.99,,2013-03-19 00:02:00,
2013-03-18 19:12:00,21.0,11.0,-100.00,NW,320,23.0,32.0,64,0.00,,,-99.99,,2013-03-19 00:12:00,
2013-03-18 19:22:00,20.0,11.0,-100.00,NW,320,27.0,36.0,64,0.00,,,-99.99,,2013-03-19 00:22:00,
2013-03-18 19:32:00,20.0,10.0,-100.00,NW,320,24.0,29.0,64,0.00,,,-99.99,,2013-03-19 00:32:00,
2013-03-18 19:42:00,20.0,10.0,-100.00,NW,320,24.0,29.0,64,0.00,,,-99.99,,2013-03-19 00:42:00,
2013-03-18 19:52:00,20.0,11.0,-100.00,NW,315,27.0,34.0,66,0.00,,,-99.99,,2013-03-19 00:52:00,
2013-03-18 20:02:00,20.0,11.0,-100.00,NW,315,27.0,34.0,66,0.00,,,-99.99,,2013-03-19 01:02:00,
2013-03-18 20:12:00,20.0,10.0,-100.00,NW,315,29.0,34.0,66,0.00,,,-99.99,,2013-03-19 01:12:00,
2013-03-18 20:22:00,19.0,10.0,-100.00,NW,315,29.0,37.0,65,0.00,,,-99.99,,2013-03-19 01:22:00,
2013-03-18 20:32:00,19.0,9.0,-100.00,NW,310,26.0,34.0,65,0.00,,,-99.99,,2013-03-19 01:32:00,
2013-03-18 20:42:00,18.0,10.0,-100.00,NW,320,16.0,28.0,67,0.00,,,-99.99,,2013-03-19 01:42:00,
2013-03-18 20:52:00,18.0,10.0,-100.00,NW,315,19.0,27.0,67,0.00,,,-99.99,,2013-03-19 01:52:00,
2013-03-18 21:02:00,18.0,10.0,-100.00,NW,315,19.0,27.0,67,0.00,,,-99.99,,2013-03-19 02:02:00,
2013-03-18 21:12:00,18.0,9.0,-100.00,NW,310,21.0,25.0,67,0.00,,,-99.99,,2013-03-19 02:12:00,
2013-03-18 21:22:00,18.0,9.0,-100.00,NW,310,22.0,27.0,68,0.00,,,-99.99,,2013-03-19 02:22:00,
2013-03-18 21:32:00,18.0,10.0,-100.00,NW,310,24.0,30.0,68,0.00,,,-99.99,,2013-03-19 02:32:00,
2013-03-18 21:42:00,18.0,10.0,-100.00,NW,315,22.0,27.0,68,0.00,,,-99.99,,2013-03-19 02:42:00,
2013-03-18 21:52:00,18.0,10.0,-100.00,NW,310,26.0,32.0,68,0.00,,,-99.99,,2013-03-19 02:52:00,
2013-03-18 22:02:00,18.0,9.0,-100.00,NW,310,21.0,31.0,68,0.00,,,-99.99,,2013-03-19 03:02:00,
2013-03-18 22:12:00,18.0,9.0,-100.00,NW,310,24.0,32.0,68,0.00,,,-99.99,,2013-03-19 03:12:00,
2013-03-18 22:22:00,18.0,9.0,-100.00,NW,315,22.0,30.0,68,0.00,,,-99.99,,2013-03-19 03:22:00,
2013-03-18 22:33:00,17.0,9.0,-100.00,NW,315,19.0,29.0,69,0.00,,,-99.99,,2013-03-19 03:33:00,
2013-03-18 22:43:00,17.0,9.0,-100.00,NW,315,19.0,29.0,69,0.00,,,-99.99,,2013-03-19 03:43:00,
2013-03-18 22:53:00,17.0,9.0,-100.00,NW,315,22.0,29.0,69,0.00,,,-99.99,,2013-03-19 03:53:00,
2013-03-18 23:03:00,17.0,9.0,-100.00,NW,315,22.0,27.0,69,0.00,,,-99.99,,2013-03-19 04:03:00,
2013-03-18 23:13:00,17.0,9.0,-100.00,NW,315,19.0,30.0,69,0.00,,,-99.99,,2013-03-19 04:13:00,
2013-03-18 23:23:00,17.0,9.0,-100.00,NW,315,24.0,29.0,69,0.00,,,-99.99,,2013-03-19 04:23:00,
2013-03-18 23:33:00,17.0,9.0,-100.00,NW,315,23.0,31.0,69,0.00,,,-99.99,,2013-03-19 04:33:00,
2013-03-18 23:43:00,17.0,9.0,-100.00,NW,320,24.0,29.0,69,0.00,,,-99.99,,2013-03-19 04:43:00,
2013-03-18 23:52:00,17.0,8.0,-100.00,NW,325,24.0,32.0,69,0.00,,,-99.99,,2013-03-19 04:52:00,